[[{"header":{"parameterUnit":"m.s-1","parameterCategory":1,"la1":30.2991,"la2":30.254,"lo1":-89.0895,"lo2":-89.0444,"dy":0.0017,"dx":0.0017,"nx":28,"ny":28,"refTime":"2023-08-09T21:00:00:Z","depth":0,"parameterNumber":2,"parameterNumberName":"U-component_of_WINDS"},"data":[0,0,0,0,0,0,0,0,0,0,0,0,0,0,0,0,0,0,0,0,0,0,0,0,0,0,0,0,0,0,0,0,0,0,0,0,0,0,0,0,0,0,0,0,0,0,0,0,0,0,0,0,0,0,0,0,0,0,2.4308,2.431,0,2.445,2.4452,2.4453,2.4506,2.4506,2.4505,2.4505,2.4654,2.4658,2.4663,0,0,0,0,0,0,0,0,0,0,0,0,0,2.4087,2.4091,2.4308,2.431,2.4311,2.445,2.4452,2.4454,2.4506,2.4506,2.4505,2.4505,2.4653,2.4658,2.4663,0,0,0,0,0,0,0,0,0,0,0,0,0,2.4201,2.4092,2.4308,2.4354,2.436,2.4449,2.4452,2.4454,2.4506,2.4506,2.4505,2.4504,2.4651,2.4657,2.4664,2.4718,0,0,2.4684,2.4687,0,0,0,0,0,0,0,0,2.4195,2.4209,2.4346,2.4351,2.4358,2.446,2.4428,2.4543,2.4506,2.4451,2.4505,2.4504,2.459,2.4602,2.463,2.4725,2.4732,2.4685,2.4689,2.4691,2.4693,0,0,0,0,0,0,0,2.4187,2.4204,2.4364,2.4348,2.4355,2.437,2.4385,2.445,2.4523,2.4456,2.446,2.4476,2.4593,2.4623,2.4634,2.4734,2.4684,2.469,2.4694,2.4697,2.4883,2.4884,0,0,0,0,0,0,2.417,2.4197,2.436,2.4369,2.4273,2.4374,2.4391,2.4428,2.4522,2.4536,2.4476,2.4478,2.4613,2.4626,2.4639,2.471,2.4691,2.4698,2.4701,2.4882,2.4883,2.4884,0,0,0,0,0,0,2.4165,2.4184,2.4354,2.4284,2.4306,2.4379,2.4419,2.4431,2.4461,2.4538,2.4551,2.4493,2.4613,2.463,2.4698,2.4716,2.4701,2.4707,2.4881,2.4883,2.4884,2.4852,0,0,0,0,0,0,2.4159,2.4182,2.4203,2.4284,2.431,2.4409,2.442,2.4434,2.4472,2.4475,2.4557,2.457,2.4613,2.4688,2.4705,2.4725,2.4712,2.488,2.4882,2.4883,2.4852,2.4852,2.4853,0,0,0,0,0,2.4151,2.4189,2.4203,2.4223,2.4337,2.441,2.4425,2.4473,2.4473,2.4495,2.4544,2.4568,2.4711,2.4695,2.4714,2.4736,2.4879,2.4881,2.4883,2.4852,2.4852,2.4853,0,0,0,0,0,0,2.4109,2.42,2.4218,2.4283,2.4338,2.4419,2.4448,2.4472,2.4529,2.453,2.4588,2.4606,2.467,2.471,2.469,2.4795,2.4797,2.4803,2.4766,2.4768,2.4768,2.4757,2.4717,0,0,0,0,0,2.4107,2.4158,2.4235,2.4285,2.4312,2.4375,2.4409,2.4441,2.4501,2.4525,2.458,2.4638,2.4697,2.4735,2.4793,2.4858,2.4878,2.4883,2.4883,2.4883,2.4888,2.4927,2.4931,2.4892,2.4892,2.4892,0,0,2.4104,2.416,2.4189,2.4278,2.4325,2.4378,2.4395,2.4449,2.4489,2.4534,2.4602,2.4644,2.4713,2.4781,2.4813,2.4816,2.4903,2.4886,2.4885,2.4891,2.493,2.4933,2.4937,2.4893,2.4893,2.4893,0,0,2.4126,2.4173,2.422,2.4267,2.4337,2.4379,2.439,2.4467,2.4497,2.4565,2.46,2.4649,2.4749,2.4797,2.4835,2.4875,2.49,2.4893,2.4895,2.4932,2.4935,2.4938,2.4954,2.4959,2.4897,2.4897,2.4897,0,2.4114,2.4193,2.4242,2.4295,2.4334,2.4375,2.4424,2.4468,2.4554,2.458,2.4582,2.4708,2.4758,2.4838,2.4847,2.4876,2.4892,2.4884,2.4931,2.4934,2.4938,2.4953,2.4959,2.4896,2.4896,2.4896,2.4897,0,2.4176,2.423,2.426,2.4341,2.4383,2.4434,2.4492,2.4529,2.4557,2.4599,2.4669,2.473,2.4802,2.4823,2.4852,2.4908,2.4907,2.4919,2.4922,2.4939,2.4955,2.4961,2.4894,2.4895,2.4895,2.4895,0,0,2.4175,2.4282,2.4292,2.433,2.4411,2.4455,2.4508,2.4577,2.4608,2.4666,2.4713,2.4797,2.4808,2.4851,2.4886,2.4918,2.4948,2.4927,2.4929,2.4929,2.5014,2.5005,2.5011,2.4964,2.4965,2.4966,2.5009,0,2.4208,2.4304,2.4349,2.4425,2.4477,2.4518,2.4565,2.462,2.4661,2.4712,2.4758,2.4816,2.4826,2.4853,2.4886,2.4937,2.4966,2.4934,2.501,2.5012,2.4991,2.5019,2.501,2.5046,2.5015,2.5016,2.5017,0,2.4259,2.4316,2.4397,2.4472,2.4496,2.4537,2.4604,2.4652,2.4716,2.4744,2.4791,2.4825,2.4884,2.4883,2.4966,2.4944,2.4977,2.5007,2.501,2.5019,2.5016,2.503,2.5059,2.5065,2.5027,2.5026,2.5025,0,2.4252,2.4349,2.441,2.4441,2.453,2.4558,2.4597,2.466,2.4699,2.4758,2.4784,2.485,2.4886,2.4937,2.4988,2.4982,2.5067,2.507,2.5093,2.5092,2.5109,2.5108,2.5145,2.513,2.513,2.513,2.513,0,2.4284,2.4332,2.4408,2.4445,2.4501,2.4554,2.4608,2.465,2.4706,2.4754,2.4793,2.4838,2.4902,2.4955,2.4995,2.5059,2.5075,2.51,2.511,2.5097,2.5094,2.512,2.5119,2.5131,2.5131,2.5131,2.513,0,2.4285,2.4337,2.4407,2.4485,2.4506,2.4544,2.4612,2.4651,2.4694,2.4754,2.4771,2.4839,2.4903,2.4959,2.5044,2.5071,2.5137,2.5149,2.5115,2.512,2.5141,2.5138,2.5197,2.5208,2.5184,2.5184,2.5184,0,2.4303,2.4341,2.4423,2.4457,2.4495,2.4549,2.4589,2.4643,2.4682,2.4759,2.4789,2.4856,2.4912,2.5013,2.5071,2.5137,2.5151,2.5168,2.5162,2.5147,2.5153,2.515,2.5155,2.5168,2.5168,2.5168,2.5168,0,2.4329,2.4353,2.4407,2.4471,2.4517,2.457,2.4625,2.4651,2.4715,2.4758,2.4824,2.4867,2.4954,2.502,2.5092,2.5134,2.5162,2.5169,2.5178,2.5165,2.5143,2.5156,2.5116,2.5167,2.5167,2.5167,2.5168,2.5168,2.4339,2.4375,2.4438,2.4498,2.4545,2.4595,2.4636,2.4683,2.4738,2.4812,2.4841,2.4908,2.4973,2.5072,2.5114,2.5168,2.5173,2.5186,2.5189,2.5192,2.519,2.5134,2.5182,2.5182,2.5182,2.5182,2.5182,0,2.4368,2.441,2.4465,2.454,2.4587,2.4607,2.4669,2.4708,2.4766,2.4823,2.4878,2.4954,2.5018,2.5081,2.515,2.5181,2.5196,2.5197,2.5196,2.5205,2.5181,2.5167,2.5184,2.5184,2.5184,2.5184,2.5184,2.5184,2.4388,2.445,2.4482,2.4567,2.4611,2.4675,2.4709,2.4756,2.4802,2.4884,2.4938,2.4978,2.5038,2.5111,2.5172,2.5189,2.5213,2.5211,2.5231,2.5208,2.5207,2.5206,2.5193,2.5216,2.5216,2.5251,2.5252,2.5252]},{"header":{"parameterUnit":"m.s-1","parameterCategory":1,"la1":30.2991,"la2":30.254,"lo1":-89.0895,"lo2":-89.0444,"dy":0.0017,"dx":0.0017,"nx":28,"ny":28,"refTime":"2023-08-09T21:00:00:Z","depth":0,"parameterNumber":3,"parameterNumberName":"V-component_of_WINDS"},"data":[0,0,0,0,0,0,0,0,0,0,0,0,0,0,0,0,0,0,0,0,0,0,0,0,0,0,0,0,0,0,0,0,0,0,0,0,0,0,0,0,0,0,0,0,0,0,0,0,0,0,0,0,0,0,0,0,0,0,2.382,2.382,0,2.385,2.3851,2.3851,2.386,2.386,2.386,2.386,2.389,2.3891,2.3891,0,0,0,0,0,0,0,0,0,0,0,0,0,2.3767,2.3768,2.382,2.382,2.382,2.385,2.3851,2.3851,2.386,2.386,2.386,2.386,2.3889,2.389,2.3892,0,0,0,0,0,0,0,0,0,0,0,0,0,2.3793,2.3768,2.3819,2.3829,2.383,2.385,2.3851,2.3851,2.3861,2.386,2.386,2.386,2.3889,2.389,2.3892,2.3904,0,0,2.3896,2.3896,0,0,0,0,0,0,0,0,2.3791,2.3795,2.3827,2.3828,2.3829,2.3851,2.3843,2.3869,2.3861,2.3849,2.386,2.386,2.3877,2.3879,2.3885,2.3906,2.3907,2.3896,2.3897,2.3897,2.3898,0,0,0,0,0,0,0,2.379,2.3794,2.3832,2.3827,2.3829,2.3831,2.3834,2.3848,2.3864,2.385,2.3851,2.3854,2.3878,2.3884,2.3886,2.3907,2.3896,2.3897,2.3898,2.3899,2.3939,2.3939,0,0,0,0,0,0,2.3787,2.3792,2.3831,2.3833,2.381,2.3832,2.3836,2.3844,2.3864,2.3866,2.3854,2.3854,2.3882,2.3885,2.3887,2.3903,2.3897,2.3899,2.39,2.3938,2.3939,2.3939,0,0,0,0,0,0,2.3785,2.379,2.3829,2.3812,2.3818,2.3833,2.3843,2.3845,2.3852,2.3867,2.387,2.3858,2.3882,2.3885,2.39,2.3904,2.3899,2.3901,2.3938,2.3939,2.3939,2.3935,0,0,0,0,0,0,2.3784,2.3789,2.3795,2.3813,2.3819,2.3842,2.3843,2.3846,2.3854,2.3855,2.3871,2.3874,2.3882,2.3898,2.3901,2.3906,2.3902,2.3938,2.3938,2.3939,2.3934,2.3935,2.3935,0,0,0,0,0,2.3782,2.3792,2.3795,2.38,2.3826,2.3843,2.3846,2.3855,2.3855,2.386,2.387,2.3873,2.3903,2.3899,2.3903,2.3908,2.3938,2.3938,2.3939,2.3934,2.3935,2.3935,0,0,0,0,0,0,2.3775,2.3795,2.3798,2.3815,2.3827,2.3844,2.3851,2.3856,2.3868,2.3868,2.3878,2.3882,2.3896,2.3903,2.3899,2.3921,2.392,2.3922,2.3916,2.3916,2.3916,2.3914,2.3903,0,0,0,0,0,2.3775,2.3788,2.3804,2.3817,2.3823,2.3836,2.3844,2.385,2.3863,2.3868,2.3878,2.389,2.3902,2.3909,2.3921,2.3935,2.3939,2.3941,2.3941,2.3941,2.3942,2.395,2.3951,2.3941,2.3941,2.3941,0,0,2.3776,2.3789,2.3796,2.3816,2.3826,2.3838,2.384,2.3853,2.3862,2.3869,2.3884,2.3892,2.3905,2.392,2.3927,2.3927,2.3946,2.3942,2.3942,2.3943,2.395,2.3951,2.3952,2.3941,2.3941,2.3941,0,0,2.3784,2.3795,2.3807,2.3817,2.3832,2.384,2.3843,2.3859,2.3865,2.388,2.3886,2.3896,2.3916,2.3925,2.3933,2.3943,2.3946,2.3946,2.3948,2.3955,2.3955,2.3956,2.3959,2.396,2.3947,2.3947,2.3947,0,2.3783,2.3802,2.3812,2.3824,2.3833,2.384,2.3852,2.3861,2.3879,2.3884,2.3884,2.3909,2.3919,2.3935,2.3937,2.3943,2.3946,2.3944,2.3955,2.3955,2.3956,2.3959,2.3961,2.3947,2.3947,2.3947,2.3947,0,2.3799,2.3812,2.382,2.3837,2.3847,2.3858,2.387,2.3878,2.3883,2.3891,2.3905,2.3917,2.3931,2.3935,2.394,2.3952,2.3951,2.3953,2.3952,2.3957,2.396,2.3961,2.3947,2.3947,2.3947,2.3947,0,0,2.3804,2.3827,2.3829,2.3837,2.3854,2.3864,2.3875,2.3889,2.3896,2.3908,2.3917,2.3934,2.3935,2.3943,2.3949,2.3955,2.3962,2.3956,2.3957,2.3957,2.3975,2.3974,2.3975,2.3964,2.3965,2.3965,2.3974,0,2.3814,2.3836,2.3845,2.3862,2.3874,2.3881,2.3891,2.3901,2.3909,2.3919,2.3927,2.3939,2.394,2.3945,2.3951,2.396,2.3966,2.3959,2.3973,2.3973,2.3969,2.3977,2.3976,2.3984,2.3975,2.3975,2.3975,0,2.3829,2.3841,2.3859,2.3874,2.3879,2.3888,2.3901,2.3911,2.3923,2.3928,2.3937,2.3943,2.3954,2.3953,2.3968,2.3963,2.3969,2.3974,2.3975,2.3976,2.3975,2.3979,2.3986,2.3988,2.3977,2.3977,2.3977,0,2.383,2.3851,2.3865,2.3871,2.3889,2.3895,2.3902,2.3914,2.3922,2.3933,2.3938,2.395,2.3956,2.3965,2.3973,2.3972,2.3988,2.3987,2.3992,2.3992,2.3995,2.3995,2.4004,2.3999,2.3999,2.3999,2.3999,0,2.384,2.3851,2.3865,2.3874,2.3886,2.3896,2.3907,2.3915,2.3925,2.3935,2.3941,2.3949,2.396,2.3969,2.3976,2.3987,2.399,2.3994,2.3996,2.3994,2.3993,2.3998,2.3998,2.3999,2.3999,2.3999,2.3999,0,2.3844,2.3854,2.3869,2.3884,2.3888,2.3897,2.3909,2.3917,2.3925,2.3937,2.394,2.3951,2.3963,2.3972,2.3987,2.3991,2.4003,2.4005,2.3999,2.4,2.4004,2.4004,2.4017,2.4019,2.4012,2.4012,2.4012,0,2.3849,2.3858,2.3874,2.3881,2.3889,2.39,2.3908,2.3917,2.3925,2.3939,2.3945,2.3957,2.3967,2.3985,2.3994,2.4005,2.4007,2.4011,2.4009,2.4007,2.4007,2.4007,2.4008,2.4011,2.4012,2.4012,2.4012,0,2.3859,2.3863,2.3874,2.3887,2.3896,2.3907,2.3917,2.3922,2.3933,2.3941,2.3954,2.3962,2.3977,2.3988,2.4,2.4007,2.4011,2.4012,2.4014,2.4012,2.4008,2.401,2.4,2.4012,2.4012,2.4012,2.4012,2.4012,2.3864,2.3871,2.3884,2.3896,2.3905,2.3914,2.3922,2.3931,2.3941,2.3955,2.3959,2.3971,2.3982,2.3999,2.4006,2.4015,2.4015,2.4018,2.4018,2.4019,2.4018,2.4007,2.4017,2.4017,2.4017,2.4017,2.4017,0,2.3873,2.3881,2.3892,2.3907,2.3916,2.3919,2.393,2.3938,2.3949,2.3959,2.3969,2.3982,2.3993,2.4003,2.4014,2.402,2.4022,2.4022,2.4022,2.4024,2.4018,2.4015,2.4021,2.4021,2.4021,2.4021,2.4021,2.4021,2.3879,2.3892,2.3898,2.3915,2.3923,2.3936,2.3942,2.395,2.3958,2.3973,2.3982,2.3989,2.3999,2.4011,2.4021,2.4023,2.4027,2.4027,2.403,2.4025,2.4024,2.4024,2.4021,2.4028,2.4028,2.4035,2.4035,2.4036]}]]